QPF
0.04 0.03 0.02 0.01 0.01 0.01 0.02 0.03 0.02 0.01 0.02 0.02 0.05 0.06 0.04 0.04 0.05 0.03 0.02 0.04 0.04 0.04 0.02 0.02 0.01 0.01 0.01 0.01 0.01 0.01 0.01 0.01 0.01 0.00 0.01 0.01 0.01 0.02
0.06 0.04 0.03 0.03 0.02 0.01 0.02 0.03 0.03 0.02 0.03 0.01 0.03 0.05 0.05 0.04 0.05 0.05 0.04 0.05 0.07 0.06 0.05 0.03 0.02 0.01 0.01 0.01 0.01 0.00 0.00 0.00 0.00 0.00 0.00 0.00 0.00 0.00
0.09 0.07 0.04 0.04 0.04 0.02 0.02 0.01 0.02 0.02 0.03 0.02 0.03 0.04 0.05 0.05 0.06 0.06 0.05 0.05 0.07 0.08 0.07 0.05 0.03 0.02 0.02 0.01 0.01 0.00 0.00 0.00 0.00 0.00 0.00 0.00 0.00 0.00
0.08 0.08 0.07 0.07 0.06 0.04 0.03 0.02 0.02 0.03 0.03 0.02 0.02 0.03 0.04 0.05 0.07 0.08 0.07 0.07 0.06 0.06 0.05 0.04 0.04 0.03 0.02 0.02 0.02 0.01 0.01 0.01 0.01 0.01 0.01 0.01 0.01 0.00
0.11 0.11 0.11 0.11 0.08 0.06 0.05 0.05 0.04 0.04 0.04 0.04 0.03 0.03 0.03 0.03 0.05 0.07 0.07 0.06 0.04 0.04 0.04 0.04 0.04 0.04 0.03 0.03 0.02 0.02 0.02 0.02 0.01 0.02 0.02 0.01 0.01 0.01
0.15 0.16 0.16 0.15 0.12 0.09 0.07 0.05 0.04 0.04 0.04 0.04 0.03 0.02 0.02 0.02 0.04 0.05 0.05 0.04 0.03 0.03 0.03 0.03 0.04 0.04 0.03 0.03 0.03 0.04 0.03 0.03 0.03 0.02 0.02 0.02 0.01 0.01
0.13 0.13 0.14 0.13 0.11 0.08 0.06 0.05 0.04 0.04 0.04 0.03 0.04 0.04 0.05 0.05 0.06 0.05 0.05 0.05 0.04 0.03 0.03 0.02 0.02 0.02 0.03 0.04 0.05 0.05 0.04 0.03 0.03 0.02 0.02 0.01 0.01 0.01
0.10 0.10 0.10 0.11 0.11 0.09 0.06 0.06 0.04 0.03 0.03 0.03 0.04 0.05 0.05 0.05 0.04 0.04 0.04 0.04 0.04 0.04 0.04 0.04 0.03 0.03 0.02 0.03 0.04 0.04 0.04 0.05 0.05 0.04 0.03 0.02 0.01 0.01
0.09 0.10 0.09 0.10 0.11 0.10 0.08 0.06 0.05 0.05 0.04 0.03 0.03 0.03 0.02 0.02 0.02 0.02 0.02 0.03 0.03 0.02 0.02 0.02 0.02 0.03 0.03 0.03 0.04 0.04 0.04 0.04 0.04 0.03 0.03 0.02 0.02 0.02
0.11 0.11 0.09 0.10 0.09 0.09 0.07 0.06 0.06 0.06 0.06 0.04 0.03 0.03 0.02 0.02 0.02 0.02 0.02 0.02 0.02 0.01 0.01 0.02 0.02 0.02 0.02 0.02 0.02 0.03 0.03 0.03 0.03 0.02 0.02 0.01 0.01 0.01
0.10 0.10 0.09 0.08 0.09 0.09 0.07 0.07 0.06 0.05 0.05 0.04 0.03 0.03 0.02 0.02 0.02 0.02 0.02 0.02 0.02 0.02 0.02 0.01 0.01 0.01 0.01 0.02 0.02 0.02 0.02 0.02 0.02 0.01 0.01 0.00 0.00 0.00
0.07 0.07 0.08 0.07 0.07 0.07 0.06 0.06 0.05 0.05 0.04 0.03 0.02 0.02 0.01 0.01 0.01 0.01 0.01 0.01 0.01 0.01 0.00 0.00 0.00 0.00 0.00 0.01 0.01 0.01 0.01 0.01 0.01 0.01 0.00 0.01 0.01 0.00
0.04 0.04 0.05 0.06 0.05 0.05 0.05 0.04 0.04 0.03 0.03 0.02 0.01 0.01 0.01 0.01 0.01 0.01 0.00 0.00 0.00 0.00 0.00 0.00 0.00 0.01 0.01 0.01 0.01 0.01 0.01 0.01 0.02 0.02 0.03 0.03 0.03 0.02
0.04 0.04 0.05 0.05 0.04 0.04 0.03 0.03 0.02 0.02 0.01 0.01 0.01 0.01 0.01 0.02 0.01 0.01 0.00 0.00 0.00 0.00 0.00 0.00 0.00 0.00 0.00 0.01 0.01 0.01 0.01 0.02 0.01 0.01 0.01 0.02 0.03 0.03
0.06 0.07 0.06 0.05 0.03 0.02 0.02 0.01 0.01 0.01 0.01 0.02 0.02 0.02 0.02 0.01 0.01 0.00 0.00 0.00 0.00 0.00 0.00 0.00 0.00 0.00 0.00 0.00 0.00 0.00 0.00 0.01 0.01 0.00 0.00 0.00 0.01 0.01
0.07 0.08 0.07 0.06 0.05 0.05 0.04 0.03 0.02 0.02 0.02 0.02 0.02 0.01 0.01 0.01 0.01 0.00 0.00 0.00 0.00 0.00 0.00 0.00 0.00 0.00 0.00 0.00 0.00 0.00 0.00 0.00 0.00 0.01 0.01 0.01 0.01 0.01
0.03 0.03 0.03 0.04 0.06 0.07 0.06 0.03 0.02 0.02 0.01 0.01 0.01 0.01 0.01 0.00 0.00 0.00 0.00 0.00 0.00 0.00 0.00 0.00 0.00 0.00 0.00 0.00 0.00 0.00 0.00 0.00 0.00 0.00 0.01 0.01 0.01 0.01
0.03 0.03 0.03 0.03 0.03 0.03 0.03 0.02 0.02 0.01 0.01 0.01 0.00 0.00 0.00 0.00 0.00 0.00 0.00 0.00 0.00 0.00 0.00 0.00 0.00 0.00 0.00 0.00 0.00 0.00 0.00 0.00 0.00 0.00 0.00 0.00 0.00 0.00
0.03 0.04 0.04 0.04 0.03 0.03 0.02 0.02 0.01 0.01 0.01 0.01 0.00 0.00 0.00 0.00 0.00 0.00 0.00 0.00 0.00 0.00 0.00 0.00 0.00 0.00 0.00 0.00 0.00 0.00 0.00 0.00 0.00 0.00 0.00 0.00 0.00 0.00
0.03 0.04 0.04 0.04 0.03 0.03 0.02 0.02 0.02 0.01 0.00 0.00 0.00 0.00 0.00 0.00 0.00 0.00 0.00 0.00 0.00 0.00 0.00 0.00 0.00 0.00 0.00 0.00 0.00 0.00 0.00 0.00 0.00 0.00 0.00 0.00 0.00 0.00
0.04 0.04 0.04 0.03 0.03 0.02 0.01 0.01 0.00 0.00 0.00 0.00 0.00 0.00 0.00 0.00 0.00 0.00 0.00 0.00 0.00 0.00 0.00 0.00 0.00 0.00 0.00 0.00 0.00 0.00 0.00 0.00 0.00 0.00 0.00 0.00 0.00 0.00
0.03 0.03 0.03 0.02 0.01 0.01 0.00 0.00 0.00 0.00 0.00 0.00 0.00 0.00 0.00 0.00 0.00 0.00 0.00 0.00 0.00 0.00 0.00 0.00 0.00 0.00 0.00 0.00 0.00 0.00 0.00 0.00 0.00 0.00 0.00 0.00 0.00 0.00
0.01 0.01 0.01 0.01 0.00 0.00 0.00 0.00 0.00 0.00 0.00 0.00 0.00 0.00 0.00 0.00 0.00 0.00 0.00 0.00 0.00 0.00 0.00 0.00 0.00 0.00 0.00 0.00 0.00 0.00 0.00 0.00 0.00 0.00 0.00 0.00 0.00 0.00
MSLP
1018.01 1018.41 1018.82 1019.22 1019.58 1019.87 1020.08 1020.18 1020.20 1020.14 1020.03 1019.88 1019.72 1019.57 1019.44 1019.35 1019.31 1019.32 1019.40 1019.54 1019.75 1020.02 1020.33 1020.66 1020.99 1021.27 1021.51 1021.68 1021.77 1021.81 1021.82 1021.81 1021.79 1021.79 1021.80 1021.81 1021.81 1021.76
1017.53 1017.90 1018.27 1018.63 1018.96 1019.23 1019.45 1019.61 1019.70 1019.76 1019.78 1019.78 1019.76 1019.74 1019.71 1019.69 1019.68 1019.70 1019.75 1019.86 1020.02 1020.25 1020.53 1020.84 1021.17 1021.47 1021.73 1021.93 1022.05 1022.12 1022.14 1022.13 1022.11 1022.09 1022.08 1022.06 1022.03 1021.96
1017.13 1017.48 1017.82 1018.14 1018.44 1018.71 1018.94 1019.14 1019.33 1019.50 1019.66 1019.81 1019.95 1020.07 1020.16 1020.22 1020.26 1020.28 1020.32 1020.38 1020.49 1020.66 1020.89 1021.16 1021.46 1021.76 1022.03 1022.24 1022.39 1022.47 1022.50 1022.49 1022.45 1022.42 1022.37 1022.33 1022.26 1022.16
1016.83 1017.19 1017.53 1017.84 1018.12 1018.39 1018.64 1018.89 1019.15 1019.43 1019.73 1020.03 1020.31 1020.56 1020.76 1020.90 1020.98 1021.02 1021.03 1021.05 1021.10 1021.20 1021.37 1021.59 1021.85 1022.12 1022.38 1022.59 1022.74 1022.82 1022.85 1022.83 1022.78 1022.71 1022.63 1022.55 1022.44 1022.30
1016.67 1017.08 1017.44 1017.77 1018.06 1018.34 1018.61 1018.91 1019.24 1019.60 1020.00 1020.41 1020.81 1021.16 1021.45 1021.66 1021.78 1021.82 1021.82 1021.80 1021.79 1021.83 1021.93 1022.10 1022.30 1022.53 1022.75 1022.94 1023.07 1023.14 1023.15 1023.11 1023.03 1022.92 1022.81 1022.68 1022.53 1022.35
1016.67 1017.14 1017.56 1017.93 1018.26 1018.56 1018.87 1019.20 1019.58 1019.99 1020.45 1020.93 1021.40 1021.82 1022.17 1022.42 1022.57 1022.63 1022.61 1022.56 1022.51 1022.50 1022.54 1022.64 1022.79 1022.96 1023.14 1023.28 1023.38 1023.41 1023.38 1023.30 1023.18 1023.04 1022.88 1022.70 1022.51 1022.28
1016.81 1017.37 1017.87 1018.31 1018.69 1019.04 1019.38 1019.73 1020.13 1020.57 1021.04 1021.55 1022.04 1022.49 1022.86 1023.13 1023.29 1023.36 1023.34 1023.28 1023.20 1023.15 1023.15 1023.20 1023.29 1023.40 1023.51 1023.60 1023.64 1023.62 1023.54 1023.41 1023.24 1023.05 1022.84 1022.62 1022.38 1022.12
1017.10 1017.74 1018.33 1018.85 1019.30 1019.69 1020.07 1020.43 1020.83 1021.25 1021.71 1022.19 1022.66 1023.09 1023.46 1023.73 1023.90 1023.97 1023.96 1023.90 1023.82 1023.75 1023.72 1023.73 1023.77 1023.82 1023.87 1023.89 1023.86 1023.77 1023.63 1023.44 1023.22 1022.98 1022.73 1022.47 1022.19 1021.89
1017.51 1018.24 1018.91 1019.50 1020.02 1020.46 1020.86 1021.23 1021.60 1021.98 1022.39 1022.81 1023.23 1023.61 1023.94 1024.19 1024.36 1024.43 1024.44 1024.40 1024.34 1024.28 1024.23 1024.21 1024.21 1024.21 1024.19 1024.14 1024.04 1023.88 1023.67 1023.43 1023.15 1022.87 1022.58 1022.29 1021.99 1021.67
1018.05 1018.84 1019.57 1020.23 1020.80 1021.28 1021.68 1022.04 1022.38 1022.71 1023.04 1023.38 1023.72 1024.03 1024.31 1024.53 1024.68 1024.77 1024.79 1024.78 1024.74 1024.70 1024.66 1024.63 1024.60 1024.56 1024.48 1024.37 1024.20 1023.98 1023.71 1023.41 1023.09 1022.77 1022.46 1022.14 1021.83 1021.50
1018.73 1019.54 1020.31 1021.00 1021.60 1022.09 1022.50 1022.83 1023.12 1023.38 1023.63 1023.89 1024.13 1024.37 1024.58 1024.76 1024.90 1024.99 1025.04 1025.06 1025.05 1025.04 1025.02 1024.98 1024.94 1024.86 1024.74 1024.58 1024.35 1024.08 1023.76 1023.42 1023.07 1022.73 1022.40 1022.08 1021.76 1021.44
1019.53 1020.33 1021.10 1021.79 1022.39 1022.88 1023.27 1023.57 1023.81 1024.00 1024.17 1024.34 1024.50 1024.66 1024.81 1024.95 1025.06 1025.15 1025.22 1025.26 1025.29 1025.30 1025.29 1025.27 1025.21 1025.11 1024.97 1024.76 1024.50 1024.19 1023.84 1023.48 1023.11 1022.75 1022.42 1022.10 1021.80 1021.49
1020.45 1021.20 1021.93 1022.59 1023.16 1023.62 1023.98 1024.24 1024.43 1024.56 1024.66 1024.75 1024.84 1024.93 1025.03 1025.13 1025.22 1025.30 1025.37 1025.43 1025.47 1025.50 1025.51 1025.49 1025.43 1025.32 1025.15 1024.93 1024.64 1024.31 1023.95 1023.57 1023.20 1022.84 1022.51 1022.21 1021.92 1021.63
1021.44 1022.11 1022.76 1023.36 1023.88 1024.30 1024.61 1024.83 1024.98 1025.06 1025.11 1025.15 1025.18 1025.23 1025.28 1025.34 1025.40 1025.47 1025.53 1025.59 1025.64 1025.67 1025.68 1025.66 1025.59 1025.48 1025.30 1025.07 1024.78 1024.44 1024.07 1023.69 1023.32 1022.96 1022.64 1022.34 1022.07 1021.80
1022.44 1023.01 1023.57 1024.09 1024.53 1024.89 1025.16 1025.34 1025.45 1025.51 1025.53 1025.53 1025.54 1025.55 1025.57 1025.60 1025.64 1025.68 1025.73 1025.77 1025.81 1025.83 1025.82 1025.79 1025.72 1025.59 1025.41 1025.18 1024.88 1024.55 1024.18 1023.80 1023.43 1023.07 1022.75 1022.45 1022.18 1021.92
1023.37 1023.84 1024.29 1024.71 1025.08 1025.38 1025.60 1025.75 1025.85 1025.89 1025.91 1025.91 1025.91 1025.91 1025.91 1025.92 1025.94 1025.95 1025.97 1025.98 1025.99 1025.98 1025.96 1025.90 1025.81 1025.68 1025.49 1025.25 1024.96 1024.63 1024.26 1023.88 1023.50 1023.13 1022.79 1022.48 1022.20 1021.93
1024.17 1024.54 1024.89 1025.22 1025.51 1025.75 1025.94 1026.07 1026.16 1026.22 1026.25 1026.27 1026.28 1026.29 1026.29 1026.29 1026.29 1026.27 1026.26 1026.23 1026.20 1026.15 1026.09 1026.00 1025.89 1025.74 1025.54 1025.30 1025.00 1024.67 1024.30 1023.91 1023.51 1023.12 1022.76 1022.42 1022.10 1021.81
1024.80 1025.07 1025.34 1025.59 1025.81 1026.01 1026.17 1026.30 1026.41 1026.49 1026.56 1026.61 1026.65 1026.68 1026.69 1026.68 1026.66 1026.62 1026.56 1026.49 1026.41 1026.32 1026.21 1026.09 1025.95 1025.78 1025.57 1025.31 1025.01 1024.67 1024.29 1023.89 1023.47 1023.05 1022.64 1022.26 1021.90 1021.57
1025.24 1025.44 1025.64 1025.83 1026.01 1026.18 1026.33 1026.47 1026.60 1026.72 1026.83 1026.92 1027.00 1027.05 1027.07 1027.07 1027.03 1026.96 1026.87 1026.75 1026.62 1026.48 1026.34 1026.18 1026.01 1025.81 1025.59 1025.32 1025.01 1024.66 1024.27 1023.84 1023.40 1022.94 1022.49 1022.06 1021.65 1021.27
1025.53 1025.68 1025.83 1025.98 1026.13 1026.29 1026.45 1026.61 1026.77 1026.92 1027.07 1027.21 1027.31 1027.39 1027.42 1027.41 1027.35 1027.26 1027.13 1026.98 1026.81 1026.63 1026.44 1026.25 1026.06 1025.84 1025.60 1025.33 1025.02 1024.66 1024.25 1023.81 1023.34 1022.85 1022.36 1021.89 1021.43 1021.00
1025.70 1025.82 1025.95 1026.09 1026.23 1026.39 1026.56 1026.74 1026.93 1027.12 1027.30 1027.46 1027.58 1027.67 1027.70 1027.68 1027.61 1027.49 1027.33 1027.14 1026.94 1026.73 1026.52 1026.31 1026.10 1025.88 1025.63 1025.36 1025.04 1024.68 1024.27 1023.82 1023.34 1022.83 1022.31 1021.80 1021.31 1020.84
1025.80 1025.92 1026.05 1026.18 1026.33 1026.50 1026.68 1026.89 1027.09 1027.30 1027.50 1027.67 1027.80 1027.88 1027.90 1027.86 1027.77 1027.63 1027.44 1027.24 1027.01 1026.79 1026.57 1026.35 1026.13 1025.91 1025.67 1025.40 1025.09 1024.74 1024.34 1023.89 1023.41 1022.90 1022.37 1021.85 1021.34 1020.84
1025.87 1026.00 1026.14 1026.28 1026.45 1026.63 1026.83 1027.04 1027.26 1027.47 1027.67 1027.83 1027.95 1028.01 1028.01 1027.95 1027.84 1027.67 1027.47 1027.25 1027.02 1026.80 1026.58 1026.37 1026.16 1025.95 1025.72 1025.47 1025.17 1024.83 1024.45 1024.02 1023.55 1023.06 1022.54 1022.02 1021.51 1021.01
Thickness
5726 5725 5724 5724 5724 5723 5721 5719 5711 5704 5703 5708 5712 5715 5715 5713 5712 5710 5708 5705 5703 5700 5697 5694 5692 5689 5687 5685 5683 5681 5679 5678 5677 5675 5674 5673 5672 5671
5723 5721 5720 5720 5720 5719 5718 5716 5714 5707 5701 5703 5705 5707 5708 5707 5705 5703 5701 5699 5696 5694 5691 5688 5685 5683 5680 5678 5676 5674 5672 5670 5669 5667 5666 5665 5664 5663
5719 5718 5716 5716 5714 5714 5713 5711 5709 5706 5698 5697 5699 5699 5699 5698 5696 5694 5692 5690 5687 5685 5683 5680 5678 5675 5673 5670 5668 5666 5663 5661 5659 5658 5657 5656 5655 5654
5714 5713 5711 5711 5709 5708 5707 5705 5703 5701 5696 5690 5689 5688 5688 5687 5686 5684 5682 5679 5677 5675 5673 5670 5668 5666 5663 5661 5658 5656 5653 5651 5649 5647 5646 5645 5644 5642
5709 5707 5705 5705 5702 5701 5700 5698 5696 5695 5691 5685 5679 5678 5677 5676 5674 5672 5670 5668 5666 5664 5662 5659 5657 5655 5652 5649 5647 5644 5642 5640 5638 5635 5634 5632 5631 5630
5702 5700 5699 5698 5695 5694 5692 5690 5688 5684 5680 5675 5670 5667 5665 5664 5662 5658 5655 5654 5652 5650 5649 5647 5645 5642 5639 5637 5634 5632 5629 5627 5625 5623 5620 5619 5618 5616
5694 5692 5691 5690 5689 5687 5684 5681 5678 5674 5669 5664 5659 5655 5652 5649 5646 5645 5642 5640 5638 5636 5634 5633 5631 5629 5626 5623 5621 5618 5616 5614 5611 5608 5606 5604 5603 5602
5686 5683 5681 5680 5679 5677 5674 5672 5669 5664 5659 5654 5648 5644 5639 5636 5634 5634 5630 5627 5623 5622 5620 5617 5617 5614 5612 5609 5607 5604 5602 5600 5597 5594 5592 5590 5588 5586
5677 5675 5672 5669 5667 5665 5661 5659 5656 5652 5650 5644 5638 5633 5629 5626 5624 5621 5617 5613 5609 5608 5607 5602 5601 5598 5597 5594 5592 5590 5587 5585 5582 5580 5577 5575 5572 5571
5667 5664 5661 5657 5656 5653 5649 5645 5641 5638 5636 5632 5628 5623 5620 5616 5614 5610 5606 5601 5598 5595 5594 5588 5585 5582 5581 5579 5577 5575 5572 5570 5567 5564 5562 5559 5557 5555
5656 5653 5650 5647 5644 5641 5637 5632 5628 5624 5622 5619 5616 5612 5608 5605 5602 5598 5593 5588 5582 5580 5578 5574 5569 5566 5564 5563 5561 5559 5556 5554 5552 5549 5546 5544 5541 5539
5644 5641 5638 5635 5632 5629 5625 5620 5615 5610 5608 5604 5601 5598 5595 5592 5589 5585 5580 5575 5569 5565 5563 5559 5554 5550 5547 5546 5545 5542 5540 5537 5535 5532 5530 5527 5525 5523
5633 5628 5625 5623 5620 5616 5613 5608 5604 5599 5595 5592 5587 5584 5581 5578 5575 5571 5567 5563 5556 5551 5549 5545 5539 5534 5530 5526 5526 5525 5523 5520 5518 5516 5513 5511 5509 5507
5622 5617 5613 5610 5607 5604 5600 5596 5592 5587 5582 5578 5573 5569 5566 5563 5560 5557 5553 5549 5545 5540 5536 5532 5526 5520 5514 5510 5507 5507 5507 5505 5503 5500 5498 5496 5494 5492
5611 5606 5602 5598 5594 5590 5586 5582 5579 5574 5569 5563 5558 5554 5551 5549 5546 5543 5539 5535 5531 5527 5523 5519 5513 5508 5502 5496 5493 5491 5490 5490 5488 5486 5484 5482 5480 5478
5598 5594 5590 5586 5581 5577 5572 5568 5564 5560 5555 5550 5545 5541 5539 5535 5531 5527 5523 5519 5514 5511 5509 5505 5501 5496 5491 5487 5482 5479 5477 5475 5475 5474 5472 5470 5468 5466
5586 5582 5577 5571 5566 5562 5557 5553 5549 5546 5541 5536 5532 5527 5523 5520 5516 5513 5508 5504 5498 5494 5492 5491 5489 5485 5482 5477 5473 5470 5467 5465 5464 5462 5460 5457 5457 5455
5576 5569 5562 5557 5552 5547 5543 5539 5535 5531 5527 5523 5518 5514 5510 5506 5502 5499 5495 5490 5485 5482 5479 5477 5475 5472 5468 5467 5465 5461 5457 5455 5454 5452 5449 5446 5445 5446
5562 5555 5550 5545 5540 5535 5531 5526 5521 5517 5514 5509 5505 5501 5498 5494 5490 5486 5483 5478 5474 5471 5469 5466 5463 5458 5453 5451 5453 5454 5449 5447 5444 5442 5440 5437 5435 5437
5549 5544 5538 5533 5529 5524 5519 5514 5509 5505 5501 5497 5493 5489 5486 5483 5479 5475 5471 5468 5464 5461 5458 5456 5453 5450 5445 5442 5441 5442 5443 5439 5436 5433 5432 5430 5429 5430
5537 5532 5527 5523 5518 5513 5508 5504 5499 5494 5490 5486 5482 5479 5476 5472 5469 5465 5462 5460 5455 5451 5448 5447 5446 5445 5442 5437 5433 5432 5434 5434 5431 5427 5425 5422 5420 5419
5527 5522 5518 5513 5508 5503 5498 5493 5489 5484 5480 5476 5473 5469 5466 5463 5460 5457 5453 5450 5447 5444 5441 5440 5440 5438 5434 5429 5426 5425 5426 5427 5426 5424 5422 5419 5414 5411
5518 5513 5509 5504 5499 5495 5490 5485 5480 5476 5472 5468 5464 5461 5458 5455 5452 5449 5446 5443 5440 5437 5435 5433 5431 5429 5426 5424 5421 5419 5420 5419 5418 5416 5417 5417 5414 5412